GW1618 Weather Reports


time (UTC)temp
F
wind
direction
speed
knots
gust
knots
rain 1hr
in
rain 24hr
in
rain mn
in
humidity
%
barometer
mb
20260508152331 52 259 3.5 8.7 0.00 0.00 0.00 67 1019.2
20260508151833 52 199 3.5 8.7 0.00 0.00 0.00 67 1019.1
20260508151337 52 231 4.3 9.6 0.00 0.00 0.00 64 1019.1
20260508150836 52 238 4.3 9.6 0.00 0.00 0.00 64 1019.1
20260508150618 52 263 4.3 11.3 0.00 0.00 0.00 64 1019.1
20260508145830 52 188 3.5 11.3 0.00 0.00 0.00 66 1019.1
20260508145328 52 214 2.6 9.6 0.00 0.00 0.00 68 1019.1
20260508144825 51 150 3.5 5.2 0.00 0.00 0.00 70 1019.2
20260508144317 51 186 4.3 7.8 0.00 0.00 0.00 71 1019.2
20260508143810 51 237 4.3 7.8 0.00 0.00 0.00 71 1019.2
20260508143310 51 185 3.5 7.8 0.00 0.00 0.00 71 1019.1
20260508142808 51 253 2.6 5.2 0.00 0.00 0.00 74 1019.1
20260508142307 50 202 2.6 5.2 0.00 0.00 0.00 76 1019.1
20260508142045 50 220 2.6 4.3 0.00 0.00 0.00 78 1018.9
20260508141308 49 196 1.7 3.5 0.00 0.00 0.00 80 1018.9
20260508140809 49 232 1.7 3.5 0.00 0.00 0.00 80 1018.9
20260508140304 49 219 1.7 3.5 0.00 0.00 0.00 80 1018.6
20260508135805 48 267 2.6 4.3 0.00 0.00 0.00 80 1018.6
20260508135326 48 239 2.6 4.3 0.00 0.00 0.00 80 1018.6
20260508134301 48 249 2.6 4.3 0.00 0.00 0.00 81 1018.2
20260508134040 48 256 1.7 4.3 0.00 0.00 0.00 81 1018.2
20260508133303 48 240 1.7 3.5 0.00 0.00 0.00 80 1018.1
20260508132801 48 196 2.6 4.3 0.00 0.00 0.00 80 1018.1
20260508132306 48 232 2.6 4.3 0.00 0.00 0.00 81 1018.1
20260508131801 48 239 1.7 3.5 0.00 0.00 0.00 81 1018.0
20260508131259 49 255 1.7 3.5 0.00 0.00 0.00 81 1018.0
20260508130758 49 189 1.7 3.5 0.00 0.00 0.00 81 1018.0
20260508130256 48 186 1.7 2.6 0.00 0.00 0.00 81 1017.6
20260508125758 49 145 1.7 2.6 0.00 0.00 0.00 81 1017.6
20260508125253 49 157 1.7 3.5 0.00 0.00 0.00 81 1017.6
20260508124754 48 144 1.7 3.5 0.00 0.00 0.00 82 1017.6
20260508124516 48 148 1.7 2.6 0.00 0.00 0.00 82 1017.6
20260508123746 48 176 1.7 2.6 0.00 0.00 0.00 83 1017.6
20260508123231 48 141 0.9 1.7 0.00 0.00 0.00 83 1017.6
20260508122805 48 165 0.9 1.7 0.00 0.00 0.00 83 1017.6
20260508122025 48 196 0.9 1.7 0.00 0.00 0.00 83 1017.5
20260508121229 48 206 0.9 1.7 0.00 0.00 0.00 83 1017.5
20260508120730 48 250 0.9 1.7 0.00 0.00 0.00 83 1017.5
20260508120229 48 250 0.9 1.7 0.00 0.00 0.00 83 1017.4
20260508115732 48 247 0.9 2.6 0.00 0.00 0.00 82 1017.4
20260508115230 48 220 1.7 2.6 0.00 0.00 0.00 82 1017.4
20260508114729 48 206 0.9 2.6 0.00 0.00 0.00 82 1017.4
20260508114518 48 190 1.7 3.5 0.00 0.00 0.00 82 1017.4
20260508113717 48 264 1.7 3.5 0.00 0.00 0.00 82 1017.4
20260508113202 48 229 1.7 3.5 0.00 0.00 0.00 81 1017.1
20260508112702 49 240 2.6 4.3 0.00 0.00 0.00 81 1017.1
20260508112203 49 225 2.6 4.3 0.00 0.00 0.00 81 1017.1
20260508111705 49 242 2.6 4.3 0.00 0.00 0.00 81 1017.0
20260508111448 49 247 2.6 4.3 0.00 0.00 0.00 81 1017.0
20260508110704 49 253 2.6 4.3 0.00 0.00 0.00 80 1017.0
20260508110200 49 260 1.7 3.5 0.00 0.00 0.00 81 1016.9
20260508105941 49 263 1.7 3.5 0.00 0.00 0.00 81 1016.9
20260508105151 49 260 2.6 3.5 0.00 0.00 0.00 80 1016.9
20260508104652 49 253 2.6 4.3 0.00 0.00 0.00 80 1016.6
20260508104436 49 250 2.6 4.3 0.00 0.00 0.00 80 1016.6
20260508103644 49 260 2.6 4.3 0.00 0.00 0.00 80 1016.6
20260508103143 49 243 2.6 4.3 0.00 0.00 0.00 80 1016.5
20260508102634 49 231 2.6 4.3 0.00 0.00 0.00 80 1016.5
20260508102132 49 222 2.6 4.3 0.00 0.00 0.00 80 1016.5
20260508101631 49 247 1.7 4.3 0.00 0.00 0.00 80 1016.5
20260508101134 49 257 1.7 3.5 0.00 0.00 0.00 80 1016.5
20260508100629 49 204 1.7 3.5 0.00 0.00 0.00 80 1016.5
20260508100121 50 222 2.6 4.3 0.00 0.00 0.00 80 1016.5
20260508095617 50 245 3.5 4.3 0.00 0.00 0.00 80 1016.5
20260508095117 50 245 3.5 4.3 0.00 0.00 0.00 79 1016.5
20260508094612 50 266 2.6 4.3 0.00 0.00 0.00 79 1016.5
20260508094105 50 264 2.6 4.3 0.00 0.00 0.00 79 1016.5
20260508093602 50 271 2.6 5.2 0.00 0.00 0.00 79 1016.5
20260508093102 50 258 2.6 5.2 0.00 0.00 0.00 79 1016.5
20260508092603 50 270 2.6 4.3 0.00 0.00 0.00 79 1016.5
20260508092353 50 244 1.7 3.5 0.00 0.00 0.00 80 1016.4
20260508091604 50 261 0.9 2.6 0.00 0.00 0.00 80 1016.4
20260508091346 50 217 0.0 1.7 0.00 0.00 0.00 80 1016.4
20260508090606 50 292 0.9 1.7 0.00 0.00 0.00 80 1016.4
20260508090059 51 292 0.9 1.7 0.00 0.00 0.00 80 1016.4
20260508085542 51 292 0.9 1.7 0.00 0.00 0.00 80 1016.4
20260508085315 51 344 0.9 1.7 0.00 0.00 0.00 79 1016.4
20260508084532 51 344 0.9 1.7 0.00 0.00 0.00 78 1016.4
20260508084025 51 324 0.0 1.7 0.00 0.00 0.00 78 1016.4
20260508083522 51 324 0.9 1.7 0.00 0.00 0.00 78 1016.3
20260508083023 51 324 1.7 1.7 0.00 0.00 0.00 77 1016.3
20260508082522 51 304 1.7 1.7 0.00 0.00 0.00 77 1016.3
20260508082021 51 310 0.9 1.7 0.00 0.00 0.00 77 1016.3
20260508081521 51 328 0.0 1.7 0.00 0.00 0.00 77 1016.3
20260508081017 51 345 0.0 0.9 0.00 0.00 0.00 76 1016.3
20260508080507 51 345 0.0 0.9 0.00 0.00 0.00 76 1016.1
20260508080004 51 345 0.9 1.7 0.00 0.00 0.00 76 1016.1
20260508075504 51 345 0.9 1.7 0.00 0.00 0.00 76 1016.1
20260508075002 51 345 1.7 3.5 0.00 0.00 0.00 76 1016.1
20260508074456 51 359 2.6 3.5 0.00 0.00 0.00 75 1016.1
20260508073953 51 339 2.6 3.5 0.00 0.00 0.00 76 1016.1
20260508073444 52 347 2.6 4.3 0.00 0.00 0.00 76 1016.1
20260508072946 52 4 2.6 4.3 0.00 0.00 0.00 76 1016.1
20260508072729 52 348 2.6 4.3 0.00 0.00 0.00 76 1016.1
20260508071942 52 352 2.6 4.3 0.00 0.00 0.00 75 1016.1
20260508071440 52 355 2.6 3.5 0.00 0.00 0.00 75 1016.1
20260508071231 52 340 2.6 3.5 0.00 0.00 0.00 75 1016.1
20260508070441 53 325 1.7 3.5 0.00 0.00 0.00 74 1016.2
20260508065941 53 339 2.6 4.3 0.00 0.00 0.00 74 1016.2
20260508065441 53 346 2.6 4.3 0.00 0.00 0.00 73 1016.2
20260508064935 53 348 1.7 3.5 0.00 0.00 0.00 73 1016.2
20260508064435 53 359 1.7 3.5 0.00 0.00 0.00 73 1016.2
20260508063935 53 350 2.6 3.5 0.00 0.00 0.00 72 1016.2
20260508063446 53 346 1.7 3.5 0.00 0.00 0.00 72 1016.1
20260508062429 54 325 2.6 3.5 0.00 0.00 0.00 72 1016.1
20260508062219 54 313 2.6 4.3 0.00 0.00 0.00 71 1016.2
20260508061423 54 323 3.5 5.2 0.00 0.00 0.00 71 1016.2
20260508060926 54 354 4.3 6.1 0.00 0.00 0.00 71 1016.2
20260508060422 54 340 3.5 6.1 0.00 0.00 0.00 70 1016.2
20260508060219 55 337 2.6 4.3 0.00 0.00 0.00 70 1016.2
20260508055422 55 331 2.6 4.3 0.00 0.00 0.00 70 1016.2
20260508054928 55 344 1.7 3.5 0.00 0.00 0.00 69 1016.2
20260508054423 55 9 0.9 2.6 0.00 0.00 0.00 69 1016.2
20260508053920 56 36 1.7 3.5 0.00 0.00 0.00 69 1016.2
20260508053417 56 9 2.6 4.3 0.00 0.00 0.00 68 1016.2
20260508053159 56 30 2.6 4.3 0.00 0.00 0.00 69 1016.2
20260508052656 56 36 1.7 3.5 0.00 0.00 0.00 68 1016.2
20260508051908 56 32 1.7 2.6 0.00 0.00 0.00 67 1016.2
20260508051405 56 41 1.7 4.3 0.00 0.00 0.00 67 1016.2
20260508050903 56 57 1.7 4.3 0.00 0.00 0.00 67 1016.2
20260508050403 56 62 1.7 4.3 0.00 0.00 0.00 66 1016.2
20260508045901 56 65 0.9 3.5 0.00 0.00 0.00 66 1016.2
20260508045721 57 325 1.7 3.5 0.00 0.00 0.00 66 1016.2
20260508044648 57 53 1.7 3.5 0.00 0.00 0.00 65 1016.2
20260508043859 57 279 1.7 3.5 0.00 0.00 0.00 65 1016.2
20260508043353 57 326 1.7 4.3 0.00 0.00 0.00 65 1016.2
20260508042843 58 320 2.6 4.3 0.00 0.00 0.00 65 1016.2
20260508042627 58 290 3.5 7.0 0.00 0.00 0.00 65 1016.2
20260508041905 58 321 4.3 7.8 0.00 0.00 0.00 65 1016.2
20260508041122 58 316 5.2 9.6 0.00 0.00 0.00 63 1016.2
20260508040338 59 298 6.1 9.6 0.00 0.00 0.00 63 1016.0
20260508035837 59 314 7.0 9.6 0.00 0.00 0.00 62 1016.0
20260508035340 59 318 7.0 11.3 0.00 0.00 0.00 62 1016.0
20260508034838 59 325 7.0 11.3 0.00 0.00 0.00 61 1016.0
20260508034617 60 321 6.1 9.6 0.00 0.00 0.00 61 1016.0
20260508034123 60 321 4.3 7.8 0.00 0.00 0.00 61 1016.0
20260508033333 60 319 4.3 6.1 0.00 0.00 0.00 61 1016.0
20260508032833 60 320 4.3 7.8 0.00 0.00 0.00 59 1016.0
20260508032333 61 322 4.3 7.8 0.00 0.00 0.00 59 1016.0
20260508031831 61 316 4.3 8.7 0.00 0.00 0.00 59 1016.0
20260508031332 61 319 5.2 8.7 0.00 0.00 0.00 58 1016.0
20260508030831 61 336 6.1 8.7 0.00 0.00 0.00 57 1016.0
20260508030331 62 4 5.2 8.7 0.00 0.00 0.00 56 1015.8
20260508025834 62 329 2.6 7.0 0.00 0.00 0.00 57 1015.8
20260508025611 62 38 1.7 3.5 0.00 0.00 0.00 57 1015.8
20260508024831 62 354 2.6 4.3 0.00 0.00 0.00 55 1015.8
20260508024330 62 354 2.6 5.2 0.00 0.00 0.00 55 1015.8
20260508023829 62 359 2.6 5.2 0.00 0.00 0.00 55 1015.8
20260508023331 62 23 2.6 5.2 0.00 0.00 0.00 56 1015.9
20260508022830 62 359 3.5 5.2 0.00 0.00 0.00 57 1015.9
20260508022329 62 335 3.5 6.1 0.00 0.00 0.00 56 1015.9
20260508021828 62 349 5.2 7.8 0.00 0.00 0.00 58 1016.0
20260508021329 62 345 5.2 7.8 0.00 0.00 0.00 56 1016.0
20260508021110 62 26 5.2 7.8 0.00 0.00 0.00 53 1016.0
20260508020331 63 13 3.5 7.8 0.00 0.00 0.00 60 1016.0
20260508015832 63 4 2.6 4.3 0.00 0.00 0.00 57 1016.0
20260508015329 63 4 2.6 5.2 0.00 0.00 0.00 58 1016.0
20260508014830 63 9 3.5 5.2 0.00 0.00 0.00 57 1016.0
20260508014329 63 344 2.6 4.3 0.00 0.00 0.00 54 1016.0
20260508013829 63 359 3.5 5.2 0.00 0.00 0.00 56 1016.0
20260508013329 63 344 4.3 7.0 0.00 0.00 0.00 56 1016.0
20260508012828 63 359 5.2 7.0 0.00 0.00 0.00 55 1016.0
20260508012330 64 9 4.3 6.1 0.00 0.00 0.00 48 1016.0
20260508011823 64 26 3.5 5.2 0.00 0.00 0.00 49 1016.4
20260508011317 64 359 2.6 4.3 0.00 0.00 0.00 47 1016.4
20260508010809 64 21 2.6 4.3 0.00 0.00 0.00 50 1016.4
20260508004746 63 9 3.5 5.2 0.00 0.00 0.00 53 1016.5
20260508004235 63 4 3.5 5.2 0.00 0.00 0.00 52 1016.5
20260508003733 63 351 2.6 4.3 0.00 0.00 0.00 49 1016.5
20260508003516 63 14 4.3 6.1 0.00 0.00 0.00 53 1016.6
20260508002735 62 9 5.2 6.1 0.00 0.00 0.00 52 1016.6
20260508002233 62 21 5.2 6.1 0.00 0.00 0.00 53 1016.6
20260508001730 62 20 5.2 6.1 0.00 0.00 0.00 53 1016.7
20260508001517 62 15 5.2 6.1 0.00 0.00 0.00 51 1016.7
20260508000729 62 9 5.2 6.1 0.00 0.00 0.00 54 1016.7
20260508000229 61 9 5.2 7.8 0.00 0.00 0.00 55 1016.9
20260507235730 61 9 6.1 7.8 0.00 0.00 0.00 55 1016.9
20260507235230 61 9 6.1 7.8 0.00 0.00 0.00 54 1016.9
20260507234730 61 15 6.1 7.8 0.00 0.00 0.00 53 1017.1
20260507234230 61 9 6.1 7.8 0.00 0.00 0.00 54 1017.1
20260507233730 61 15 7.0 9.6 0.00 0.00 0.00 58 1017.1
20260507233517 61 15 7.8 9.6 0.00 0.00 0.00 57 1017.2
20260507232732 61 354 8.7 10.4 0.00 0.00 0.00 59 1017.2
20260507232234 61 9 7.0 10.4 0.00 0.00 0.00 56 1017.2
20260507232014 61 4 7.0 9.6 0.00 0.00 0.00 53 1017.5
20260507231230 61 359 7.8 9.6 0.00 0.00 0.00 55 1017.5
20260507230730 61 9 7.0 9.6 0.00 0.00 0.00 55 1017.5
20260507230230 61 337 7.0 9.6 0.00 0.00 0.00 60 1017.6
20260507225729 60 4 7.8 9.6 0.00 0.00 0.00 60 1017.6
20260507225517 60 4 7.8 9.6 0.00 0.00 0.00 56 1017.6
20260507224731 60 9 7.8 10.4 0.00 0.00 0.00 58 1017.6
20260507224230 60 14 7.8 10.4 0.00 0.00 0.00 57 1017.6
20260507223729 60 13 7.8 10.4 0.00 0.00 0.00 56 1017.6
20260507223230 60 13 8.7 10.4 0.00 0.00 0.00 55 1017.9
20260507223013 60 28 8.7 10.4 0.00 0.00 0.00 58 1017.9
20260507222231 60 9 8.7 10.4 0.00 0.00 0.00 59 1017.9
20260507221730 60 21 7.8 11.3 0.00 0.00 0.00 58 1018.1
20260507221525 60 9 7.8 11.3 0.00 0.00 0.00 59 1018.1
20260507221027 60 9 7.8 10.4 0.00 0.00 0.00 59 1018.1
20260507220536 60 9 7.8 9.6 0.00 0.00 0.00 56 1018.2
20260507215729 59 9 7.8 10.4 0.00 0.00 0.00 57 1018.2
20260507215523 59 9 8.7 10.4 0.00 0.00 0.00 57 1018.2
20260507214728 59 15 9.6 11.3 0.00 0.00 0.00 58 1018.2
20260507214230 59 14 10.4 12.2 0.00 0.00 0.00 60 1018.2
20260507213732 58 4 10.4 12.2 0.00 0.00 0.00 60 1018.2
20260507213228 59 4 9.6 12.2 0.00 0.00 0.00 59 1018.5
20260507212731 59 13 8.7 12.2 0.00 0.00 0.00 61 1018.5
20260507212232 59 4 8.7 13.0 0.00 0.00 0.00 59 1018.5
20260507211733 58 344 9.6 13.0 0.00 0.00 0.00 61 1018.6
20260507211229 58 15 10.4 13.0 0.00 0.00 0.00 61 1018.6
20260507210732 58 9 10.4 12.2 0.00 0.00 0.00 61 1018.6
20260507210230 58 16 9.6 12.2 0.00 0.00 0.00 62 1018.7
20260507205730 58 4 8.7 10.4 0.00 0.00 0.00 62 1018.7
20260507205231 58 4 7.8 10.4 0.00 0.00 0.00 62 1018.7
20260507204729 58 9 7.0 10.4 0.00 0.00 0.00 61 1018.9
20260507204228 58 19 7.8 10.4 0.00 0.00 0.00 60 1018.9
20260507203731 58 9 7.8 10.4 0.00 0.00 0.00 60 1018.9
20260507203230 58 4 7.8 11.3 0.00 0.00 0.00 61 1019.0
20260507203021 58 9 7.8 11.3 0.00 0.00 0.00 60 1019.0
20260507202230 59 351 7.0 11.3 0.00 0.00 0.00 60 1019.0
20260507201728 60 23 5.2 11.3 0.00 0.00 0.00 58 1019.1
20260507201229 62 359 2.6 11.3 0.00 0.00 0.00 54 1019.1
20260507200733 61 125 2.6 7.0 0.00 0.00 0.00 53 1019.1
20260507200230 60 201 2.6 7.0 0.00 0.00 0.00 53 1019.2
20260507195731 60 197 2.6 5.2 0.00 0.00 0.00 54 1019.2
20260507195229 60 200 2.6 6.1 0.00 0.00 0.00 53 1019.2
20260507194733 60 217 1.7 6.1 0.00 0.00 0.00 52 1019.4
20260507194229 60 148 1.7 3.5 0.00 0.00 0.00 53 1019.4
20260507193730 59 179 2.6 6.1 0.00 0.00 0.00 55 1019.4
20260507193208 59 204 2.6 6.1 0.00 0.00 0.00 55 1019.5
20260507192710 59 196 1.7 5.2 0.00 0.00 0.00 55 1019.5
20260507192210 59 212 1.7 2.6 0.00 0.00 0.00 56 1019.5
20260507191711 58 147 0.9 2.6 0.00 0.00 0.00 59 1019.6
20260507191209 57 353 2.6 6.1 0.00 0.00 0.00 60 1019.6
20260507190950 56 277 3.5 6.1 0.00 0.00 0.00 63 1019.6
20260507190209 56 17 3.5 5.2 0.00 0.00 0.00 64 1019.6
20260507185731 56 343 2.6 6.1 0.00 0.00 0.00 64 1019.6
20260507184705 56 354 2.6 6.1 0.00 0.00 0.00 63 1019.7
20260507184202 57 329 1.7 4.3 0.00 0.00 0.00 59 1019.7
20260507183702 57 359 1.7 5.2 0.00 0.00 0.00 60 1019.7
20260507183228 57 213 1.7 5.2 0.00 0.00 0.00 60 1019.7
20260507182208 56 264 2.6 5.2 0.00 0.00 0.00 61 1019.7
20260507181712 56 235 2.6 5.2 0.00 0.00 0.00 60 1019.8
20260507181157 56 234 1.7 4.3 0.00 0.00 0.00 61 1019.8
20260507180646 56 265 0.9 3.5 0.00 0.00 0.00 62 1019.8
20260507180134 56 211 0.9 3.5 0.00 0.00 0.00 63 1020.1
20260507175912 55 213 2.6 6.1 0.00 0.00 0.00 64 1020.1
20260507175131 55 202 2.6 6.1 0.00 0.00 0.00 64 1020.1
20260507174629 55 241 2.6 6.1 0.00 0.00 0.00 64 1020.1
20260507174417 55 247 3.5 6.1 0.00 0.00 0.00 64 1020.1
20260507173631 55 301 3.5 6.1 0.00 0.00 0.00 65 1020.1
20260507173130 55 277 3.5 6.1 0.00 0.00 0.00 64 1020.1
20260507172629 55 269 3.5 7.8 0.00 0.00 0.00 64 1020.1
20260507172419 56 265 2.6 7.8 0.00 0.00 0.00 64 1020.1
20260507171920 56 235 1.7 4.3 0.00 0.00 0.00 62 1020.1
20260507171409 55 155 1.7 5.2 0.00 0.00 0.00 64 1020.1
20260507170610 54 190 1.7 5.2 0.00 0.00 0.00 66 1020.1
20260507170109 53 160 1.7 5.2 0.00 0.00 0.00 68 1020.2
20260507165846 53 165 1.7 3.5 0.00 0.00 0.00 68 1020.2
20260507165129 53 204 1.7 3.5 0.00 0.00 0.00 68 1020.2
20260507164111 53 246 1.7 3.5 0.00 0.00 0.00 68 1020.2
20260507163608 53 262 0.9 3.5 0.00 0.00 0.00 68 1020.2
20260507163108 53 281 0.9 3.5 0.00 0.00 0.00 69 1020.2
20260507162609 53 179 1.7 3.5 0.00 0.00 0.00 69 1020.2
20260507162107 53 228 0.9 3.5 0.00 0.00 0.00 69 1020.2
20260507161843 53 209 0.9 3.5 0.00 0.00 0.00 69 1020.3
20260507161346 53 9 0.9 2.6 0.00 0.00 0.00 69 1020.3
20260507160846 53 119 1.7 3.5 0.00 0.00 0.00 70 1020.3
20260507160105 53 240 0.9 3.5 0.00 0.00 0.00 70 1020.4
20260507155538 53 140 0.9 3.5 0.00 0.00 0.00 70 1020.4
20260507155033 52 169 1.7 3.5 0.00 0.00 0.00 70 1020.4
20260507154537 52 234 0.9 2.6 0.00 0.00 0.00 70 1020.4
20260507154309 52 76 0.9 2.6 0.00 0.00 0.00 71 1020.4
20260507153527 52 128 0.9 2.6 0.00 0.00 0.00 72 1020.6
20260507153021 52 281 0.9 1.7 0.00 0.00 0.00 71 1020.6